When you browse on this site, cookies collect data to enhance your experience and personalize the content and advertising you see.
Visit our Privacy Policy to learn more. By continuing to use the site, you agree to this use of cookies and data.
  • In Latvia
  • List of Countries
  • For 7 days
  • Water Temperature
  • Weather Map
  • Weather Widgets
  • user-avatar
    Login

    Hourly Weather Princeton

    Today, 16 October, Wednesday

    Time Temperature Precipitation Wind Pressure Humidity
    00:00 +12°C° 0 mm 2 mps 759 mmHg 78%
    01:00 +12°C° 0 mm 2 mps 759 mmHg 80%
    02:00 +12°C° 0 mm 2 mps 758 mmHg 82%
    03:00 +12°C° 0 mm 2 mps 757 mmHg 84%
    04:00 +12°C° 0 mm 2 mps 757 mmHg 87%
    05:00 +13°C° 0 mm 2 mps 757 mmHg 88%
    06:00 +13°C° 0 mm 3 mps 756 mmHg 89%
    07:00 +13°C° 0 mm 3 mps 756 mmHg 90%
    08:00 +15°C° 0 mm 4 mps 755 mmHg 82%
    09:00 +17°C° 0 mm 5 mps 754 mmHg 74%
    10:00 +20°C° 0 mm 6 mps 754 mmHg 66%
    11:00 +20°C° 0.7 mm 6 mps 752 mmHg 69%
    12:00 +19°C° 0.7 mm 6 mps 751 mmHg 72%
    13:00 +19°C° 0.7 mm 6 mps 750 mmHg 75%
    14:00 +17°C° 3.4 mm 5 mps 749 mmHg 81%
    15:00 +16°C° 3.4 mm 5 mps 747 mmHg 87%
    16:00 +15°C° 3.4 mm 4 mps 746 mmHg 92%
    17:00 +15°C° 4.8 mm 4 mps 745 mmHg 92%
    18:00 +15°C° 4.8 mm 4 mps 744 mmHg 93%
    19:00 +16°C° 4.8 mm 3 mps 743 mmHg 93%
    20:00 +14°C° 2.7 mm 5 mps 742 mmHg 88%
    21:00 +11°C° 2.7 mm 7 mps 741 mmHg 83%
    22:00 +10°C° 2.7 mm 9 mps 741 mmHg 78%
    23:00 +10°C° 0 mm 9 mps 741 mmHg 77%

    Tomorrow, 17 October, Thursday

    Time Temperature Precipitation Wind Pressure Humidity
    00:00 +9°C° 0 mm 8 mps 741 mmHg 75%
    01:00 +8°C° 0 mm 7 mps 741 mmHg 74%
    02:00 +8°C° 0 mm 7 mps 741 mmHg 73%
    03:00 +9°C° 0 mm 7 mps 741 mmHg 72%
    04:00 +9°C° 0 mm 7 mps 741 mmHg 72%
    05:00 +9°C° 0 mm 7 mps 742 mmHg 71%
    06:00 +9°C° 0 mm 7 mps 742 mmHg 69%
    07:00 +9°C° 0 mm 8 mps 742 mmHg 68%
    08:00 +10°C° 0 mm 8 mps 743 mmHg 66%
    09:00 +10°C° 0 mm 8 mps 743 mmHg 65%
    10:00 +10°C° 0 mm 8 mps 743 mmHg 63%
    11:00 +11°C° 0 mm 8 mps 743 mmHg 60%
    12:00 +12°C° 0 mm 9 mps 743 mmHg 58%
    13:00 +13°C° 0 mm 9 mps 743 mmHg 55%
    14:00 +13°C° 0 mm 9 mps 744 mmHg 56%
    15:00 +13°C° 0 mm 8 mps 744 mmHg 57%
    16:00 +12°C° 0 mm 7 mps 744 mmHg 58%
    17:00 +12°C° 0 mm 7 mps 745 mmHg 60%
    18:00 +12°C° 0 mm 7 mps 746 mmHg 63%
    19:00 +11°C° 0 mm 7 mps 746 mmHg 65%
    20:00 +11°C° 0 mm 6 mps 747 mmHg 66%
    21:00 +11°C° 0 mm 6 mps 747 mmHg 67%
    22:00 +12°C° 0 mm 5 mps 748 mmHg 68%
    23:00 +12°C° 0 mm 5 mps 748 mmHg 68%

    Day after tomorrow, 18 October, Friday

    Time Temperature Precipitation Wind Pressure Humidity
    00:00 +12°C° 0 mm 5 mps 749 mmHg 69%
    01:00 +12°C° 0 mm 5 mps 749 mmHg 70%
    02:00 +11°C° 0 mm 4 mps 750 mmHg 71%
    03:00 +11°C° 0 mm 4 mps 750 mmHg 72%
    04:00 +11°C° 0 mm 4 mps 751 mmHg 73%
    05:00 +11°C° 0 mm 4 mps 752 mmHg 73%
    06:00 +11°C° 0 mm 3 mps 752 mmHg 73%
    07:00 +11°C° 0 mm 3 mps 753 mmHg 73%
    08:00 +12°C° 0 mm 4 mps 753 mmHg 68%
    09:00 +13°C° 0 mm 5 mps 754 mmHg 63%
    10:00 +14°C° 0 mm 5 mps 754 mmHg 58%
    11:00 +14°C° 0 mm 5 mps 754 mmHg 57%
    12:00 +15°C° 0 mm 5 mps 754 mmHg 55%
    13:00 +15°C° 0 mm 6 mps 755 mmHg 54%
    14:00 +15°C° 0 mm 5 mps 755 mmHg 55%
    15:00 +14°C° 0 mm 4 mps 755 mmHg 56%
    16:00 +14°C° 0 mm 4 mps 755 mmHg 57%
    17:00 +13°C° 0 mm 3 mps 756 mmHg 59%
    18:00 +12°C° 0 mm 3 mps 756 mmHg 61%
    19:00 +11°C° 0 mm 3 mps 757 mmHg 63%
    20:00 +10°C° 0 mm 3 mps 757 mmHg 66%
    21:00 +10°C° 0 mm 3 mps 758 mmHg 69%
    22:00 +9°C° 0 mm 3 mps 758 mmHg 71%
    23:00 +8°C° 0 mm 2 mps 758 mmHg 72%

    19 October, Saturday

    Time Temperature Precipitation Wind Pressure Humidity
    00:00 +8°C° 0 mm 2 mps 758 mmHg 73%
    01:00 +8°C° 0 mm 2 mps 759 mmHg 74%
    02:00 +7°C° 0 mm 2 mps 759 mmHg 75%
    03:00 +7°C° 0 mm 2 mps 759 mmHg 76%
    04:00 +7°C° 0 mm 2 mps 759 mmHg 77%
    05:00 +7°C° 0 mm 2 mps 759 mmHg 77%
    06:00 +7°C° 0 mm 2 mps 759 mmHg 76%
    07:00 +7°C° 0 mm 2 mps 760 mmHg 76%
    08:00 +9°C° 0 mm 2 mps 760 mmHg 68%
    09:00 +12°C° 0 mm 2 mps 760 mmHg 60%
    10:00 +14°C° 0 mm 2 mps 760 mmHg 53%
    11:00 +15°C° 0 mm 2 mps 759 mmHg 49%
    12:00 +16°C° 0 mm 2 mps 759 mmHg 45%
    13:00 +17°C° 0 mm 2 mps 758 mmHg 41%
    14:00 +17°C° 0 mm 2 mps 758 mmHg 45%
    15:00 +17°C° 0 mm 2 mps 758 mmHg 48%
    16:00 +17°C° 0 mm 2 mps 758 mmHg 52%
    17:00 +15°C° 0 mm 1 mps 758 mmHg 57%
    18:00 +14°C° 0 mm 1 mps 758 mmHg 62%
    19:00 +12°C° 0 mm 1 mps 759 mmHg 66%
    20:00 +12°C° 0 mm 1 mps 759 mmHg 69%
    21:00 +12°C° 0 mm 1 mps 759 mmHg 71%
    22:00 +11°C° 0 mm 1 mps 759 mmHg 74%
    23:00 +11°C° 0 mm 1 mps 759 mmHg 75%

    20 October, Sunday

    Time Temperature Precipitation Wind Pressure Humidity
    00:00 +11°C° 0 mm 1 mps 759 mmHg 77%
    01:00 +11°C° 0 mm 1 mps 759 mmHg 79%
    02:00 +11°C° 0 mm 1 mps 759 mmHg 81%
    03:00 +10°C° 0 mm 1 mps 759 mmHg 82%
    04:00 +10°C° 0 mm 1 mps 759 mmHg 84%
    05:00 +11°C° 0 mm 1 mps 759 mmHg 84%
    06:00 +11°C° 0 mm 1 mps 760 mmHg 83%
    07:00 +11°C° 0 mm 1 mps 760 mmHg 83%
    08:00 +13°C° 0 mm 1 mps 760 mmHg 75%
    09:00 +15°C° 0 mm 2 mps 760 mmHg 68%
    10:00 +17°C° 0 mm 2 mps 760 mmHg 60%
    11:00 +18°C° 0 mm 2 mps 760 mmHg 56%
    12:00 +20°C° 0 mm 2 mps 760 mmHg 52%
    13:00 +21°C° 0 mm 2 mps 760 mmHg 48%
    14:00 +21°C° 0 mm 2 mps 760 mmHg 50%
    15:00 +22°C° 0 mm 1 mps 760 mmHg 52%
    16:00 +21°C° 0 mm 1 mps 760 mmHg 54%
    17:00 +20°C° 0 mm 1 mps 761 mmHg 59%
    18:00 +18°C° 0 mm 1 mps 761 mmHg 64%
    19:00 +15°C° 0 mm 0 mps 761 mmHg 69%
    20:00 +15°C° 0 mm 1 mps 761 mmHg 72%
    21:00 +15°C° 0 mm 1 mps 762 mmHg 74%
    22:00 +14°C° 0 mm 1 mps 762 mmHg 77%
    23:00 +14°C° 0 mm 1 mps 762 mmHg 79%

    21 October, Monday

    Time Temperature Precipitation Wind Pressure Humidity
    00:00 +13°C° 0 mm 0 mps 762 mmHg 81%
    01:00 +12°C° 0 mm 0 mps 762 mmHg 84%
    02:00 +12°C° 0 mm 0 mps 762 mmHg 85%
    03:00 +13°C° 0 mm 1 mps 763 mmHg 87%
    04:00 +13°C° 0 mm 1 mps 763 mmHg 88%
    05:00 +13°C° 0 mm 1 mps 763 mmHg 88%
    06:00 +14°C° 0 mm 1 mps 763 mmHg 88%
    07:00 +14°C° 0 mm 1 mps 763 mmHg 88%
    08:00 +16°C° 0 mm 2 mps 763 mmHg 80%
    09:00 +18°C° 0 mm 3 mps 763 mmHg 71%
    10:00 +20°C° 0 mm 3 mps 763 mmHg 62%
    11:00 +20°C° 0 mm 3 mps 763 mmHg 63%
    12:00 +20°C° 0 mm 4 mps 762 mmHg 63%
    13:00 +21°C° 0 mm 4 mps 762 mmHg 63%
    14:00 +21°C° 0 mm 4 mps 761 mmHg 66%
    15:00 +20°C° 0 mm 5 mps 761 mmHg 69%
    16:00 +20°C° 0 mm 5 mps 760 mmHg 73%
    17:00 +19°C° 0.9 mm 5 mps 760 mmHg 78%
    18:00 +19°C° 0.9 mm 5 mps 759 mmHg 84%
    19:00 +17°C° 0.9 mm 5 mps 759 mmHg 89%
    20:00 +19°C° 3.3 mm 6 mps 758 mmHg 91%
    21:00 +18°C° 3.3 mm 7 mps 757 mmHg 92%
    22:00 +20°C° 3.3 mm 7 mps 757 mmHg 93%
    23:00 +20°C° 0.9 mm 7 mps 756 mmHg 94%
    Show more